Cloud_Cover
48 10 0 0 0 0 10 2 0 0 0 0 0 19 6 19 100 55 54 80 56 36 100 92 0 0 61 60 9 60 0 30 1
0 0 0 0 0 0 17 0 0 0 0 0 1 1 0 0 100 100 100 32 47 97 99 51 0 1 100 48 82 95 100 99 65
0 0 0 0 0 4 96 100 28 2 0 0 4 0 0 4 100 100 100 58 99 100 5 1 63 98 49 97 44 0 0 87 100
2 4 0 0 5 0 7 83 68 0 0 0 0 3 0 0 92 100 100 99 9 100 100 96 12 60 33 34 97 7 3 0 9
5 5 3 4 5 40 100 100 100 10 0 0 88 66 0 65 76 100 99 92 58 99 100 80 83 22 53 15 81 14 2 1 17
68 48 31 43 5 45 100 100 16 29 5 5 38 48 1 17 74 98 100 74 92 35 92 83 30 27 100 34 4 14 8 0 2
90 100 100 37 5 5 5 6 5 6 9 13 20 5 1 1 10 98 100 68 63 100 100 39 19 76 100 92 41 96 2 0 0
100 100 96 5 5 5 5 52 98 100 100 100 100 100 69 10 37 100 100 10 99 100 100 100 60 91 90 100 22 31 74 10 2
100 93 100 65 5 13 66 100 100 100 100 100 100 100 100 31 5 25 86 60 35 17 94 100 95 37 62 100 42 10 66 37 34
20 13 84 44 5 67 46 77 100 100 100 91 100 95 84 37 16 91 100 63 42 66 97 100 100 72 42 68 100 47 54 68 60
72 98 48 84 82 51 81 51 95 100 100 100 100 100 100 50 76 100 16 16 99 100 74 81 94 76 9 14 98 98 7 77 20
82 97 100 98 96 13 33 89 95 100 100 100 100 35 51 100 70 79 99 100 85 5 24 99 90 9 75 4 100 99 98 100 37
100 100 100 100 100 100 89 44 88 89 86 43 58 7 5 68 97 100 100 100 39 5 5 5 5 0 0 51 21 49 36 16 33
100 100 100 100 100 100 100 100 100 87 69 10 28 54 100 100 100 100 75 7 5 4 5 5 5 5 0 98 2 0 2 30 80
100 100 100 100 100 100 100 100 100 100 82 8 71 100 100 100 100 100 100 89 36 6 5 5 5 2 0 0 0 0 1 0 1
100 100 100 100 100 100 100 100 100 100 94 54 100 100 100 100 100 100 87 75 5 5 5 4 5 1 0 0 0 0 0 0 0
100 99 98 100 100 100 100 100 100 100 100 100 100 100 100 100 100 88 50 22 5 5 5 5 2 0 0 0 0 0 0 0 3
100 100 98 87 79 100 100 100 100 100 100 100 100 100 100 100 100 79 78 34 23 18 5 5 0 0 0 0 0 0 0 0 0
100 100 100 100 100 100 99 100 100 100 100 100 100 100 100 100 100 100 94 95 48 5 5 5 5 0 0 0 0 0 0 0 0
100 100 100 100 100 100 100 100 99 63 100 100 100 100 100 100 100 100 100 17 23 5 5 5 5 0 0 0 0 0 0 0 0